Regional Weather Roundup
Issued by NWS

Home | Current Version | Previous Version | Text Only | Print | Product List | Glossary On
Versions: 1 2 3 4 5 6 7 8 9 10 11 12 13 14 15 16 17 18 19 20 21 22 23 24 25 26 27
000
ASCA42 TJSJ 302210
RWRPR
PUERTO RICO/U.S. VIRGIN ISLANDS HOURLY WEATHER ROUNDUP
NATIONAL WEATHER SERVICE SAN JUAN PR
600 PM AST FRI SEP 30 2016

PRZ001>002-007>008-010-302300-
PUERTO RICO

CITY           SKY/WX    TMP DP  RH WIND       PRES   REMARKS
SAN JUAN LMM   MOCLDY    81  77  89 E5        29.86F
AGUADILLA      PTCLDY    82  75  78 E14       29.86S
CEIBA          PTCLDY    82  77  83 E7        29.87F HX  91
$$

VIZ001>002-302300-
U.S. VIRGIN ISLANDS

CITY           SKY/WX    TMP DP  RH WIND       PRES   REMARKS
CHARLOTTE AMA  CLEAR     84  73  70 E15       29.84S HX  91
CHRISTIANSTED  CLEAR     81  75  83 NE7       29.84F
$$

HOURLY WEATHER ROUNDUP FOR THE NEWS MEDIA

CITY           SKY/WX    TMP DP  RH WIND       PRES   REMARKS
ORLANDO        TSTM      83  74  74 SW7       29.98R
NEW YORK       LGT RAIN  60  57  89 NE21G28   30.23R FOG
NEWARK         LGT RAIN  58  57  97 N15       30.25R VSB 1
CHICAGO        CLOUDY    63  59  87 NE15      30.08S
HARTFORD       LGT RAIN  58  55  90 NE13      30.33S
BOSTON         LGT RAIN  57  53  86 NE17G23   30.39F FOG
DALLAS         MOSUNNY   80  49  33 NW7       30.09F
PHILADELPHIA   CLOUDY    62  59  90 NE16G23   30.19S
LOS ANGELES    MOSUNNY   77  59  53 W12       29.97F
WASHINGTON DC  DRIZZLE   62  61  96 NE12      30.12S FOG



USA.gov is the U.S. government's official web portal to all federal, state and local government web resources and services.